Flag for Comoros Weather past 2 weeks in Mutsamudu, Comoros

Now
82 °F

Passing clouds.


Feels Like: 89 °F
Forecast: 79 / 82 °F
Wind: 6 mph from West

Location: Dzaoudzi / Pamanzi Mayotte


UV Index: 7 (High)

Visibility: N/A


Pressure: 29.98 "Hg

Humidity: 79%

Dew point: 75 °F

Location of MutsamuduLocation

Historic Weather in Mutsamudu

°F

Mutsamudu temperature yesterday

Maximum temperature yesterday: 88 °F (at 11:00 AM)
Minimum temperature yesterday: 79 °F (at 10:30 PM)
Average temperature yesterday: 83 °F

Past Weeks' High & Low Weather Summary

 TemperatureHumidityPressure
High90 °F (Apr 7, 2:00 PM)94% (Apr 5, 2:30 AM)30.01 "Hg (Apr 5, 2:30 AM)
Low75 °F (Apr 5, 2:00 AM)59% (Apr 7, 2:00 PM)29.83 "Hg (Apr 5, 3:00 PM)
Average83 °F74%29.91 "Hg
* Reported Apr 4 9:00 PM — Apr 19 9:00 PM, Mutsamudu, Weather by CustomWeather, © 2014

Note: Actual official high and low records may vary slightly from our data, if they occured in-between our weather recording intervals... More about our weather records

Advertising

Historic Weather Conditions — Data for Previous 24 hours

 ConditionsComfort  
Time TempWeatherWind HumidityBarometerVisibility
9:00 PM
Apr 19
82 °FPassing clouds.6 mph79%29.98 "HgN/A
8:30 PM82 °FWarm.6 mph79%29.98 "HgN/A
8:00 PM82 °FWarm.3 mph79%29.98 "HgN/A
7:30 PM81 °FWarm.3 mph79%29.98 "HgN/A
7:00 PM81 °FWarm.1 mph84%29.98 "HgN/A
6:30 PM82 °FPassing clouds.No wind79%29.95 "HgN/A
6:00 PM84 °FPassing clouds.No wind70%29.95 "HgN/A
5:30 PM84 °FScattered clouds.2 mph74%29.95 "HgN/A
5:00 PM86 °FScattered clouds.2 mph70%29.95 "HgN/A
4:30 PM86 °FScattered clouds.3 mph66%29.92 "HgN/A
4:00 PM86 °FScattered clouds.3 mph66%29.92 "HgN/A
3:30 PM86 °FPassing clouds.3 mph66%29.92 "HgN/A
3:00 PM88 °FPassing clouds.3 mph62%29.92 "HgN/A
2:30 PM88 °FScattered clouds.6 mph62%29.92 "HgN/A
2:00 PM88 °FScattered clouds.5 mph66%29.92 "HgN/A
1:30 PM88 °FScattered clouds.3 mph66%29.92 "HgN/A
1:00 PM88 °FScattered clouds.6 mph62%29.95 "HgN/A
12:30 PM88 °FScattered clouds.6 mph66%29.95 "HgN/A
12:00 PM86 °FPassing clouds.5 mph70%29.95 "HgN/A
11:30 AM88 °FPassing clouds.5 mph66%29.95 "HgN/A
11:00 AM88 °FPassing clouds.6 mph66%29.98 "HgN/A
10:30 AM88 °FScattered clouds.5 mph66%29.98 "HgN/A
10:00 AM88 °FScattered clouds.5 mph66%29.98 "HgN/A
9:30 AM88 °FScattered clouds.3 mph66%29.98 "HgN/A
9:00 AM88 °FPassing clouds.3 mph66%29.98 "HgN/A
8:30 AM86 °FPassing clouds.3 mph70%29.98 "HgN/A
8:00 AM84 °FPassing clouds.5 mph74%29.95 "HgN/A
7:30 AM82 °FPassing clouds.5 mph84%29.95 "HgN/A
7:00 AM81 °FPassing clouds.No wind94%29.95 "HgN/A
6:00 AM77 °FPassing clouds.1 mph94%29.92 "HgN/A
5:30 AM79 °FPassing clouds.No wind94%29.92 "HgN/A
5:00 AM79 °FWarm.No wind94%29.92 "HgN/A
4:30 AM79 °FWarm.2 mph89%29.89 "HgN/A
4:00 AM79 °FWarm.3 mph94%29.89 "HgN/A
3:30 AM79 °FWarm.3 mph94%29.92 "HgN/A
3:00 AM79 °FPassing clouds.2 mph94%29.92 "HgN/A
2:30 AM79 °FPassing clouds.1 mph94%29.92 "HgN/A
2:00 AM79 °FWarm.5 mph94%29.92 "HgN/A
1:30 AM79 °FWarm.3 mph89%29.92 "HgN/A
1:00 AM79 °FPassing clouds.2 mph94%29.92 "HgN/A
12:00 AM79 °FPassing clouds.3 mph94%29.95 "HgN/A
11:30 PM
Apr 18
79 °FWarm.No wind89%29.95 "HgN/A
11:00 PM79 °FWarm.2 mph94%29.95 "HgN/A
10:30 PM79 °FWarm.2 mph94%29.95 "HgN/A
10:00 PM81 °FPassing clouds.No wind84%29.95 "HgN/A
9:30 PM81 °FPassing clouds.3 mph84%29.95 "HgN/A
9:00 PM81 °FWarm.2 mph84%29.95 "HgN/A
Weather by CustomWeather, © 2014

See weather overview